Flag for Germany Past Weather in Geislingen an der Steige, Baden-Württemberg, Germany — Yesterday and Last 2 Weeks

Now
18 °F

Ice fog.


Feels Like: 18 °F
Forecast: 7 / 20 °F
Wind: 1 mph from Northwest

Location: Laupheim Airport

Current Time: Jan 21, 2017 at 2:27:41 pm

Latest Report: Jan 21, 2017 at 1:20 pm


Visibility: 1 mi

Pressure: 30.36 "Hg

Humidity: 86%

Dew Point: 14 °F

Location of Geislingen an der SteigeLocation

Past Weather in Geislingen an der Steige — Graph

°F

Geislingen an der Steige Temperature Yesterday

Maximum temperature yesterday: 19 °F (at 1:20 pm)
Minimum temperature yesterday: 7 °F (at 4:20 am)
Average temperature yesterday: 14 °F

High & Low Weather Summary for the Past Weeks

 TemperatureHumidityPressure
High41 °F (Jan 13, 1:20 am)100% (Jan 8, 9:06 pm)30.60 "Hg (Jan 8, 9:06 pm)
Low0 °F (Jan 7, 3:20 am)51% (Jan 13, 11:20 am)29.39 "Hg (Jan 13, 1:20 am)
Average24 °F84%30.15 "Hg
* Reported Jan 6 1:20 pm — Jan 21 1:20 pm, Geislingen an der Steige, Weather by CustomWeather, © 2017

Note: Actual official high and low records may vary slightly from our data, if they occured in-between our weather recording intervals... More about our weather records

Advertising

Geislingen an der Steige Weather History for the Previous 24 Hours

Scroll right to see more
 ConditionsComfort  
Time TempWeatherWind HumidityBarometerVisibility
1:20 pm
Sat, Jan 21
18 °FIce fog.1 mph86%30.36 "Hg1 mi
12:20 pm14 °FIce fog.1 mph85%30.36 "Hg1 mi
11:20 am12 °FIce fog.1 mph92%30.39 "Hg1 mi
10:20 am12 °FIce fog.1 mph85%30.39 "Hg0 mi
9:20 am12 °FIce fog.1 mph85%30.39 "Hg0 mi
8:20 am12 °FIce fog.2 mph85%30.39 "Hg0 mi
7:20 am12 °FIce fog.1 mph85%30.36 "Hg0 mi
6:20 am12 °FIce fog.1 mph85%30.36 "Hg0 mi
5:20 am12 °FIce fog.1 mph85%30.36 "Hg0 mi
4:20 am10 °FIce fog.2 mph92%30.36 "Hg0 mi
3:20 am12 °FIce fog.1 mph85%30.39 "Hg0 mi
2:20 am12 °FIce fog.1 mph85%30.39 "Hg0 mi
1:20 am12 °FIce fog.2 mph85%30.39 "Hg0 mi
12:20 am12 °FIce fog.2 mph85%30.39 "Hg0 mi
11:20 pm
Fri, Jan 20
12 °FIce fog.1 mph92%30.42 "Hg0 mi
10:20 pm14 °FIce fog.3 mph85%30.39 "Hg0 mi
9:20 pm10 °FIce fog.1 mph92%30.42 "Hg0 mi
8:20 pm12 °FIce fog.2 mph92%30.39 "Hg1 mi
7:20 pm12 °FIce fog.2 mph92%30.39 "Hg1 mi
6:20 pm14 °FIce fog.2 mph92%30.39 "Hg2 mi
5:20 pm18 °FIce fog.3 mph86%30.39 "Hg3 mi
4:20 pm19 °FCold.5 mph79%30.39 "Hg4 mi
3:20 pm19 °FPassing clouds.5 mph79%30.39 "Hg4 mi
2:20 pm19 °FScattered clouds.5 mph79%30.39 "Hg4 mi
Weather by CustomWeather, © 2017

See weather overviewHow to use our weather pages